This is the latest recevied weather packets stored in our database for station/object KC9DRE. If no packets are shown the sender has not sent any weather packets the latest 10 day(s).
| Time | Temp. | Humidity | Pressure | Rain* | Wind** | Luminosity | Snow |
|---|---|---|---|---|---|---|---|
| 1787951885 | 30° C | 46% | 1019.6 hPa | 0 mm | - | 399 W/m² | - |
| 1787951581 | 30° C | 47% | 1019.6 hPa | 0 mm | - | 416 W/m² | - |
| 1787951277 | 30° C | 46% | 1019.6 hPa | 0 mm | - | 433 W/m² | - |
| 1787950972 | 29.44° C | 48% | 1019.6 hPa | 0 mm | - | 447 W/m² | - |
| 1787950667 | 30° C | 47% | 1019.5 hPa | 0 mm | - | 148 W/m² | - |
| 1787950364 | 30° C | 49% | 1019.5 hPa | 0 mm | - | 471 W/m² | - |
| 1787950059 | 29.44° C | 46% | 1019.7 hPa | 0 mm | - | 486 W/m² | - |
| 1787949755 | 29.44° C | 46% | 1019.7 hPa | 0 mm | - | 505 W/m² | - |
| 1787949454 | 30° C | 48% | 1019.5 hPa | 0 mm | - | 535 W/m² | - |
| 1787949149 | 30.56° C | 48% | 1019.5 hPa | 0 mm | - | 567 W/m² | - |
| 1787948846 | 30.56° C | 50% | 1019.5 hPa | 0 mm | - | 568 W/m² | - |
| 1787948545 | 30.56° C | 48% | 1019.5 hPa | 0 mm | - | 576 W/m² | - |
| 1787948241 | 30.56° C | 45% | 1019.6 hPa | 0 mm | - | 595 W/m² | - |
| 1787947939 | 30° C | 48% | 1019.5 hPa | 0 mm | - | 636 W/m² | - |
| 1787947635 | 30° C | 50% | 1019.8 hPa | 0 mm | - | 669 W/m² | - |
| 1787947334 | 30° C | 48% | 1019.9 hPa | 0 mm | - | 703 W/m² | - |
| 1787947034 | 30° C | 50% | 1019.9 hPa | 0 mm | - | 689 W/m² | - |
| 1787946732 | 30° C | 52% | 1019.7 hPa | 0 mm | - | 668 W/m² | - |
| 1787946431 | 30° C | 46% | 1019.8 hPa | 0 mm | - | 673 W/m² | - |
| 1787946131 | 29.44° C | 51% | 1019.8 hPa | 0 mm | - | 681 W/m² | - |
| 1787945826 | 28.89° C | 55% | 1019.9 hPa | 0 mm | - | 594 W/m² | - |
| 1787945521 | 29.44° C | 49% | 1019.9 hPa | 0 mm | - | 136 W/m² | - |
| 1787945217 | 30.56° C | 47% | 1019.9 hPa | 0 mm | - | 167 W/m² | - |
| 1787944915 | 30.56° C | 49% | 1019.9 hPa | 0 mm | - | 781 W/m² | - |
| 1787944614 | 30.56° C | 50% | 1019.9 hPa | 0 mm | - | 739 W/m² | - |
* Rain latest hour (hover to see other rain measurements)
** Current wind speed in m/s (hover to see current wind gust speed)